(498696) = 2008 SV306 = 2011 GH89 = 2016 HS11

Discovered at Socorro on 2008-09-29 by LINEAR.

Orbit

Orbit type: Main Belt

Note: WebGL enabled browser required.

epoch2024-03-31.0
epoch JD2460400.5
perihelion date2026-06-24.25567
perihelion JD2461215.75567
argument of perihelion (°)301.90372
ascending node (°)14.37246
inclination (°)7.07660
eccentricity0.1651028
perihelion distance (AU)2.2935913
Tisserand w.r.t. Jupiter3.3
ΔV w.r.t. Earth (km/sec)9.8
semimajor axis (AU)2.7471541
mean anomaly (°)183.52908
mean daily motion (°/day)0.21646080
aphelion distance (AU)3.201
period (years)4.55
P-vector [x]0.72107460
P-vector [y]-0.58679850
P-vector [z]-0.36840052
Q-vector [x]0.69218225
Q-vector [y]0.63356910
Q-vector [z]0.34565000
absolute magnitude17.1
phase slope0.15
uncertainty0
referenceMPEC 2024-C37
observations used124
oppositions9
arc length (days)6137
first opposition used2007
last opposition used2024
residual rms (arc-secs)0.68
perturbers coarse indicatorM-v
perturbers precise indicator003Ek
first observation date used2007-04-14.0
last observation date used2024-02-01.0
computer nameMPCLINUX
JD of orbit computation2458022.313565
perihelion JD uncertainty (days)7.5391E-05
argument of perihelion uncertainty (°)2.7221E-05
ascending node uncertainty (°)1.9296E-05
inclination uncertainty (°)5.4930E-06
eccentricity uncertainty 3.9135E-08
perihelion distance uncertainty (AU)1.1254E-07
Minimum Orbit Intersection Distances (in AU)
for orbit epoch: 2460200.5, reference: E2024-C37
Mercury1.86429
Venus1.56638
Earth1.28904
Mars0.91235
Jupiter2.13
Saturn5.97114
Uranus15.2951
Neptune27.0554

Observations

127 total observations over interval: 2007 04 14.39074 – 2024 02 01.515138
These data are available for download (format description).

